TimeEST,TemperatureF,Dew PointF,Humidity,Sea Level PressureIn,VisibilityMPH,Wind Direction,Wind SpeedMPH,Gust SpeedMPH,PrecipitationIn,Events,Conditions,WindDirDegrees,DateUTC
12:15 AM,33.8,33.3,98,29.90,0.5,Calm,Calm,-,N/A,Fog,Fog,0,2013-01-30 05:15:00
12:35 AM,32.5,32.2,99,29.89,0.5,Calm,Calm,-,N/A,Fog,Fog,0,2013-01-30 05:35:00
12:55 AM,32.0,32.0,100,29.88,0.2,Calm,Calm,-,N/A,Fog,Fog,0,2013-01-30 05:55:00
1:15 AM,32.0,32.0,100,29.86,0.5,Calm,Calm,-,N/A,Fog,Fog,0,2013-01-30 06:15:00
1:35 AM,32.0,32.0,100,29.84,0.2,Calm,Calm,-,N/A,Fog,Fog,0,2013-01-30 06:35:00
1:55 AM,32.2,32.0,99,29.83,0.2,Calm,Calm,-,N/A,Fog,Fog,0,2013-01-30 06:55:00
2:15 AM,32.0,31.8,99,29.84,0.2,NW,3.5,-,N/A,Fog,Fog,310,2013-01-30 07:15:00
2:35 AM,32.0,31.6,99,29.82,0.5,Calm,Calm,-,N/A,Fog,Fog,0,2013-01-30 07:35:00
2:55 AM,31.8,31.5,99,29.81,0.2,Calm,Calm,-,N/A,Fog,Fog,0,2013-01-30 07:55:00
3:15 AM,31.5,31.1,99,29.80,2.0,Calm,Calm,-,N/A,,Scattered Clouds,0,2013-01-30 08:15:00
3:35 AM,31.6,31.3,99,29.79,3.0,NNW,3.5,-,N/A,,Clear,330,2013-01-30 08:35:00
3:55 AM,32.0,31.6,99,29.79,3.0,Calm,Calm,-,N/A,,Clear,0,2013-01-30 08:55:00
4:15 AM,32.0,31.6,99,29.78,0.8,Calm,Calm,-,N/A,,Mist,0,2013-01-30 09:15:00
4:35 AM,32.2,32.0,99,29.76,5.0,Calm,Calm,-,N/A,,Clear,0,2013-01-30 09:35:00
4:55 AM,32.4,32.2,99,29.76,5.0,Calm,Calm,-,N/A,,Clear,0,2013-01-30 09:55:00
5:15 AM,32.0,31.6,99,29.74,5.0,Calm,Calm,-,N/A,,Clear,0,2013-01-30 10:15:00
5:53 AM,33.8,33.8,100,29.72,5.0,SW,4.6,-,N/A,,Scattered Clouds,230,2013-01-30 10:53:00
6:53 AM,44.6,44.6,100,29.70,5.0,WSW,4.6,-,N/A,,Mostly Cloudy,240,2013-01-30 11:53:00
7:53 AM,44.6,44.6,100,29.66,6.0,South,10.4,-,N/A,,Overcast,190,2013-01-30 12:53:00
8:53 AM,51.8,50.0,94,29.63,7.0,SSW,9.2,-,N/A,,Overcast,210,2013-01-30 13:53:00
9:10 AM,51.8,50.0,94,29.63,7.0,SW,6.9,-,N/A,,Overcast,220,2013-01-30 14:10:00
9:53 AM,53.6,50.0,88,29.61,10.0,SSW,10.4,-,N/A,,Overcast,210,2013-01-30 14:53:00
10:53 AM,55.4,51.8,88,29.56,10.0,SSW,17.3,-,N/A,,Mostly Cloudy,200,2013-01-30 15:53:00
11:53 AM,59.0,53.6,82,29.50,7.0,SSW,16.1,-,N/A,,Mostly Cloudy,200,2013-01-30 16:53:00
12:15 PM,59.0,53.6,82,29.52,5.0,SSW,16.1,-,N/A,Rain,Light Rain,210,2013-01-30 17:15:00
12:53 PM,57.2,53.6,88,29.55,5.0,West,17.3,-,N/A,Rain,Light Rain,270,2013-01-30 17:53:00
1:53 PM,55.4,53.6,94,29.53,5.0,South,6.9,-,N/A,Rain,Rain,190,2013-01-30 18:53:00
2:53 PM,53.6,53.6,100,29.57,5.0,SSW,6.9,-,N/A,Rain,Rain,210,2013-01-30 19:53:00
3:53 PM,53.6,53.6,100,29.54,5.0,SW,5.8,-,N/A,Rain,Rain,220,2013-01-30 20:53:00
4:53 PM,53.6,51.8,94,29.51,6.0,West,4.6,-,N/A,Rain,Light Rain,280,2013-01-30 21:53:00
5:53 PM,51.8,51.8,100,29.51,5.0,South,3.5,-,N/A,Rain,Rain,190,2013-01-30 22:53:00
6:53 PM,51.8,51.8,100,29.46,6.0,South,6.9,-,N/A,Rain,Rain,170,2013-01-30 23:53:00
7:21 PM,51.8,51.8,100,29.44,5.0,SSE,4.6,-,N/A,Rain,Rain,160,2013-01-31 00:21:00
7:53 PM,51.8,51.8,100,29.41,5.0,SSE,4.6,-,N/A,Rain,Rain,160,2013-01-31 00:53:00
8:53 PM,53.6,51.8,94,29.35,6.0,SE,5.8,-,N/A,Rain,Rain,140,2013-01-31 01:53:00
9:55 PM,53.2,51.3,93,29.29,7.0,South,3.5,-,0.01,Rain,Rain,170,2013-01-31 02:55:00
10:15 PM,52.7,51.3,95,29.27,5.0,Calm,Calm,-,0.06,Rain,Rain,0,2013-01-31 03:15:00
10:35 PM,53.6,51.8,94,29.24,7.0,SSE,4.6,-,0.11,Rain,Rain,160,2013-01-31 03:35:00
10:55 PM,53.6,51.4,92,29.22,10.0,SSE,8.1,-,N/A,Rain,Rain,160,2013-01-31 03:55:00
11:15 PM,53.6,51.6,93,29.20,7.0,SSE,9.2,-,0.07,Rain,Rain,160,2013-01-31 04:15:00
11:35 PM,53.4,51.3,92,29.20,10.0,South,6.9,-,0.12,Rain,Rain,180,2013-01-31 04:35:00
11:55 PM,53.4,51.3,92,29.18,7.0,South,6.9,-,0.01,Rain,Rain,180,2013-01-31 04:55:00